MIDAS 4 DEB, 195

Orbit data source: Space-Track

MIDAS 4 DEB, 195 is space debris in LEO originally from a launch on Sat, 21 Oct 1961 UTC launched from the Air Force Western Test Range (AFWTR). Debris objects in space refer to the collection of defunct objects orbiting the Earth. Examples of debris include non-operational satellites, rocket bodies, and fragments generated from explosions, collisions, or faulty payload assembly.

Loading next visibility...
Identifier
195, 1961-028D
Orbit
LEO
Country
Flag of USUS
Related business
Manufacturer
Unknown
Mission
Spacecraft
Bus & Motor
Unknown
Mass
~10 kg wet, ~10 kg dry
Launch date (UTC)
1961-10-21 (64 years ago)
Launch vehicle
Unknown
Launch site
Air Force Western Test Range (AFWTR)
Object type
Payload
Rocket body
Debris
Shape & HBR
Unknown shape, 1.1 m
Radar Cross Section
Medium (>0.1 m² and <1 m²)

Expand to show TLE details & history
Last TLE update: 23 hours ago

TLE from 23 hours ago
0 MIDAS 4 DEB
1   195U 61028D   25312.53426178  .00000003  00000-0  30501-2 0  9995
2   195  95.8347 158.1835 0127120 289.0282  69.6836  8.65622322 23939
Epoch: 2025-11-08T12:49Z
TLE epoch observation values (Epoch: 2025-11-08T12:49:20.217Z)
Latitude
-0.00004°
Longitude
-82.11323°
Altitude
3,600.801 km
Speed
6.334 km/s
True Right ascension
10h 32m 44s
True Declination
0° 00' 00"
Sunlit
Object was in daylight at epoch
Visualization orbit readout
Latitude
Unknown
Longitude
Unknown
Altitude
Unknown
Speed
Unknown
Apparent Right ascension
Unknown
Apparent Declination
Unknown
Sunlit
N/A
Visualization observer readout
Local Sidereal Time
08:04:03
Azimuth
Unknown
Elevation
Unknown
Doppler factor
Unknown
Orbital elements
Apogee altitude
3,766.662 km
Perigee altitude
3,511.978 km
Semi-major axis
10,017.457 km
Eccentricity
0.01271
Inclination
95.8347°
RAAN
158.1835°
Arg. of periapsis
289.0282°
True anomaly
71.05711°
Mean anomaly
69.6836°
Eccentric anomaly
70.36961°
Mean motion
2.16475 °/min
Orbital period
166.3 mins
BSTAR
0.0030501
Loading maneuver chart data...
Computing Atmospheric mass density...
Loading historical data...
Loading historical data...
Loading historical data...
Loading historical data...
Loading historical data...
Loading historical data...
Loading historical data...

Documentation

Showing up to 5 results
|